Clermont County, Batavia, OH

9:15 PM EST on December 15, 2019 (GMT -0500)
Clermont County, Batavia

Weather History for KI69 - November, 2019

Change the Weather History Date:

Thursday, November 14, 2019

  Actual Average (WUND) Record (WUND)
Temperature  
Mean Temperature 34 °F -  
Max Temperature 42 °F - - (-1)
Min Temperature 27 °F - - (-1)
Degree Days  
Heating Degree Days 30    
Moisture  
Dew Point 24 °F    
Average Humidity 69    
Maximum Humidity 90    
Minimum Humidity 51    
Precipitation  
Precipitation 0.00 in - - ()
Sea Level Pressure  
Sea Level Pressure 30.25 in    
Wind  
Wind Speed 5 mph (SW)    
Max Wind Speed 10 mph    
Max Gust Speed -    
Visibility 10 miles    
Events      
Averages and records for this station are not official NWS values.
T = Trace of Precipitation, MM = Missing Value Source: NWS Daily Summary

Daily Weather History Graph

Daily Weather History Graph

Search for Another Location

Airport or City:

Astronomy

Nov. 14, 2019 Rise Set
Actual Time 7:18 AM EST 5:23 PM EST
Civil Twilight 6:50 AM EST 5:52 PM EST
Nautical Twilight 6:17 AM EST 6:24 PM EST
Astronomical Twilight 5:46 AM EST 6:55 PM EST
Moon 7:09 PM EST (11/14) 9:12 AM EST (11/14)
Length of Visible Light 11h 02m
Length of Day
10h 04m
Waning Gibbous, 95% of the Moon is Illuminated
Nov 14
Waning Gibbous
Nov 19
Last Quarter
Nov 26
New
Dec 4
First Quarter
Dec 12
Full

Hourly Weather History & Observations

Time (EST) Temp. Windchill Dew Point Humidity Pressure Visibility Wind Dir Wind Speed Gust Speed Precip Events Conditions
12:17 AM 27.9 °F 22.6 °F 19.2 °F 70% 30.19 in 10.0 mi South 4.6 mph - N/A   Clear
12:36 AM 27.5 °F 21.1 °F 19.4 °F 72% 30.19 in 10.0 mi South 5.8 mph - N/A   Clear
1:15 AM 28.4 °F 24.6 °F 19.9 °F 71% 30.19 in 10.0 mi South 3.5 mph - N/A   Clear
1:39 AM 28.9 °F 25.2 °F 20.1 °F 70% 30.19 in 10.0 mi SSW 3.5 mph - N/A   Clear
1:57 AM 28.9 °F 23.9 °F 20.3 °F 70% 30.19 in 10.0 mi SSW 4.6 mph - N/A   Clear
2:15 AM 29.3 °F 24.3 °F 20.5 °F 70% 30.20 in 10.0 mi SSW 4.6 mph - N/A   Clear
2:35 AM 29.3 °F 24.3 °F 20.8 °F 71% 30.20 in 10.0 mi South 4.6 mph - N/A   Clear
2:55 AM 29.3 °F 24.3 °F 20.8 °F 71% 30.20 in 10.0 mi South 4.6 mph - N/A   Clear
3:19 AM 29.1 °F 23.0 °F 21.0 °F 72% 30.20 in 10.0 mi South 5.8 mph - N/A   Clear
3:37 AM 28.9 °F 25.2 °F 21.2 °F 73% 30.19 in 10.0 mi South 3.5 mph - N/A   Clear
3:55 AM 28.6 °F - 21.6 °F 75% 30.19 in 10.0 mi Calm Calm - N/A   Clear
4:16 AM 29.3 °F 23.2 °F 21.9 °F 74% 30.20 in 10.0 mi SSW 5.8 mph - N/A   Clear
4:35 AM 29.8 °F 24.9 °F 22.1 °F 73% 30.20 in 10.0 mi SSW 4.6 mph - N/A   Clear
4:59 AM 29.7 °F 22.8 °F 22.6 °F 75% 30.21 in 10.0 mi SSW 6.9 mph - N/A   Clear
5:17 AM 29.8 °F 23.9 °F 22.8 °F 75% 30.21 in 10.0 mi SSW 5.8 mph - N/A   Clear
5:35 AM 29.7 °F 24.7 °F 22.8 °F 76% 30.21 in 10.0 mi SSW 4.6 mph - N/A   Clear
5:55 AM 29.3 °F 25.6 °F 23.0 °F 77% 30.21 in 10.0 mi South 3.5 mph - N/A   Scattered Clouds
6:15 AM 29.7 °F 26.1 °F 23.2 °F 77% 30.22 in 10.0 mi SSW 3.5 mph - N/A   Scattered Clouds
6:16 AM 29.7 °F 24.7 °F 23.2 °F 77% 30.22 in 10.0 mi SSW 4.6 mph - N/A   Scattered Clouds
6:39 AM 29.7 °F 26.1 °F 23.5 °F 78% 30.22 in 10.0 mi South 3.5 mph - N/A   Overcast
6:57 AM 29.7 °F 26.1 °F 23.5 °F 78% 30.22 in 10.0 mi SSW 3.5 mph - N/A   Overcast
7:35 AM 30.2 °F 24.3 °F 23.9 °F 77% 30.23 in 10.0 mi SSW 5.8 mph - N/A   Overcast
7:55 AM 30.6 °F 25.8 °F 24.3 °F 77% 30.24 in 10.0 mi SSW 4.6 mph - N/A   Overcast
8:19 AM 31.1 °F 25.4 °F 24.4 °F 76% 30.25 in 10.0 mi SSW 5.8 mph - N/A   Overcast
8:37 AM 31.5 °F 26.8 °F 24.8 °F 76% 30.26 in 10.0 mi SW 4.6 mph - N/A   Overcast
8:55 AM 31.8 °F 25.4 °F 25.0 °F 76% 30.26 in 10.0 mi SSW 6.9 mph - N/A   Overcast
9:15 AM 32.2 °F 26.7 °F 25.3 °F 76% 30.26 in 10.0 mi SSW 5.8 mph - N/A   Overcast
9:35 AM 33.1 °F 27.7 °F 25.3 °F 73% 30.26 in 10.0 mi SSW 5.8 mph - N/A   Overcast
9:59 AM 33.6 °F 27.5 °F 25.5 °F 72% 30.26 in 10.0 mi SW 6.9 mph - N/A   Overcast
10:17 AM 34.0 °F 26.0 °F 25.5 °F 71% 30.26 in 10.0 mi SW 10.4 mph - N/A   Overcast
10:35 AM 34.3 °F 28.4 °F 25.7 °F 71% 30.26 in 10.0 mi SSW 6.9 mph - N/A   Overcast
10:55 AM 35.4 °F 28.4 °F 25.7 °F 68% 30.25 in 10.0 mi SW 9.2 mph - N/A   Overcast
11:15 AM 37.6 °F 31.6 °F 25.0 °F 60% 30.25 in 10.0 mi SW 8.1 mph - N/A   Overcast
11:38 AM 38.5 °F 33.4 °F 26.1 °F 61% 30.24 in 10.0 mi WSW 6.9 mph - N/A   Overcast
11:57 AM 39.2 °F 33.6 °F 26.1 °F 59% 30.24 in 10.0 mi SW 8.1 mph - N/A   Mostly Cloudy
12:15 PM 39.9 °F 34.5 °F 25.3 °F 56% 30.24 in 10.0 mi SSW 8.1 mph - N/A   Mostly Cloudy
12:35 PM 40.5 °F 34.6 °F 26.2 °F 57% 30.23 in 10.0 mi SW 9.2 mph - N/A   Mostly Cloudy
12:55 PM 40.8 °F 35.6 °F 25.5 °F 55% 30.23 in 10.0 mi SW 8.1 mph - N/A   Scattered Clouds
1:37 PM 41.4 °F 37.6 °F 25.5 °F 53% 30.24 in 10.0 mi SSW 5.8 mph - N/A   Clear
1:55 PM 41.2 °F 36.6 °F 24.4 °F 51% 30.23 in 10.0 mi SW 6.9 mph - N/A   Clear
2:15 PM 41.4 °F 36.2 °F 24.3 °F 51% 30.24 in 10.0 mi SW 8.1 mph - N/A   Clear
2:35 PM 41.9 °F 37.5 °F 25.0 °F 51% 30.24 in 10.0 mi WSW 6.9 mph - N/A   Clear
2:58 PM 42.1 °F 37.1 °F 25.7 °F 52% 30.24 in 10.0 mi West 8.1 mph - N/A   Clear
3:16 PM 41.9 °F 40.0 °F 25.7 °F 53% 30.24 in 10.0 mi WSW 3.5 mph - N/A   Clear
3:35 PM 41.9 °F 37.5 °F 25.5 °F 52% 30.25 in 10.0 mi WSW 6.9 mph - N/A   Clear
3:55 PM 41.7 °F 38.0 °F 25.3 °F 52% 30.25 in 10.0 mi WSW 5.8 mph - N/A   Clear
4:15 PM 41.4 °F 38.4 °F 25.9 °F 54% 30.26 in 10.0 mi West 4.6 mph - N/A   Clear
4:38 PM 41.0 °F 39.0 °F 25.7 °F 55% 30.26 in 10.0 mi WSW 3.5 mph - N/A   Clear
5:15 PM 39.9 °F 36.7 °F 25.5 °F 56% 30.26 in 10.0 mi WSW 4.6 mph - N/A   Clear
5:35 PM 39.2 °F 37.0 °F 25.7 °F 58% 30.27 in 10.0 mi WSW 3.5 mph - N/A   Clear
5:55 PM 38.7 °F - 25.0 °F 58% 30.28 in 10.0 mi Calm Calm - N/A   Scattered Clouds
6:18 PM 37.8 °F - 25.5 °F 61% 30.28 in 10.0 mi Calm Calm - N/A   Mostly Cloudy
6:36 PM 37.2 °F - 25.7 °F 63% 30.28 in 10.0 mi Calm Calm - N/A   Scattered Clouds
6:56 PM 37.4 °F - 25.7 °F 63% 30.29 in 10.0 mi Calm Calm - N/A   Clear
7:15 PM 35.6 °F - 25.7 °F 67% 30.29 in 10.0 mi Calm Calm - N/A   Scattered Clouds
7:35 PM 36.5 °F - 25.3 °F 64% 30.29 in 10.0 mi Calm Calm - N/A   Overcast
7:58 PM 35.6 °F 32.8 °F 26.2 °F 69% 30.29 in 10.0 mi SW 3.5 mph - N/A   Overcast
8:16 PM 34.2 °F 31.2 °F 26.6 °F 74% 30.29 in 10.0 mi WSW 3.5 mph - N/A   Mostly Cloudy
8:35 PM 33.6 °F 30.6 °F 26.6 °F 75% 30.29 in 10.0 mi WSW 3.5 mph - N/A   Mostly Cloudy
8:55 PM 32.7 °F - 26.1 °F 76% 30.30 in 10.0 mi Calm Calm - N/A   Scattered Clouds
9:15 PM 32.2 °F - 27.1 °F 82% 30.30 in 10.0 mi Calm Calm - N/A   Scattered Clouds
9:38 PM 32.0 °F - 26.6 °F 80% 30.30 in 10.0 mi Calm Calm - N/A   Clear
9:56 PM 32.9 °F - 25.7 °F 75% 30.31 in 10.0 mi Calm Calm - N/A   Clear
10:15 PM 30.9 °F 27.5 °F 26.2 °F 83% 30.31 in 10.0 mi WSW 3.5 mph - N/A   Clear
10:35 PM 32.4 °F - 25.7 °F 76% 30.31 in 10.0 mi Calm Calm - N/A   Clear
10:59 PM 29.3 °F - 25.7 °F 86% 30.32 in 10.0 mi Calm Calm - N/A   Clear
11:18 PM 29.8 °F - 26.1 °F 86% 30.32 in 10.0 mi Calm Calm - N/A   Clear
11:36 PM 29.1 °F - 25.7 °F 87% 30.31 in 10.0 mi Calm Calm - N/A   Clear
11:55 PM 28.8 °F - 26.1 °F 90% 30.31 in 10.0 mi Calm Calm - N/A   Clear